Weather History for Stampede Pass, WA

Change the Weather History Date:

Tuesday, November 9, 2010

  Actual Average Record
Temperature  
Mean Temperature 27 °F -  
Max Temperature 28 °F 37 °F 51 °F (1996)
Min Temperature 26 °F 30 °F 24 °F (2012)
Degree Days  
Heating Degree Days 38    
Moisture  
Dew Point 27 °F    
Average Humidity 96    
Maximum Humidity 100    
Minimum Humidity 92    
Precipitation  
Precipitation 0.36 in - - ()
Sea Level Pressure  
Sea Level Pressure 29.83 in    
Wind  
Wind Speed 4 mph (East)    
Max Wind Speed 10 mph    
Max Gust Speed 23 mph    
Visibility 3 miles    
Events Fog , Snow    
Averages and records for this station are not official NWS values.
T = Trace of Precipitation, MM = Missing Value Source: NWS Daily Summary

Daily Weather History Graph

Daily Weather History Graph

Search for Another Location

Airport:

Trip Planner

Search our weather history database for the weather conditions in past years. The results will help you decide how hot, cold, wet, or windy it might be!

Date:

Astronomy

Nov. 09, 2010 Rise Set
Actual Time 7:00 AM PST 4:36 PM PST
Civil Twilight 6:27 AM PST 5:09 PM PST
Nautical Twilight 5:51 AM PST 5:46 PM PST
Astronomical Twilight 5:15 AM PST 6:22 PM PST
Moon 10:55 AM PST (11/9) 7:31 PM PST (11/9)
Length of Visible Light 10h 41m
Length of Day
9h 36m
Waxing Crescent, 15% of the Moon is Illuminated
Nov 9
Waxing Crescent
Nov 13
First Quarter
Nov 21
Full
Nov 28
Last Quarter
Dec 5
New

Hourly Weather History & Observations

Time (PST) Temp. Windchill Dew Point Humidity Pressure Visibility Wind Dir Wind Speed Gust Speed Precip Events Conditions
12:45 AM 28.4 °F - 28.4 °F 100% 29.96 in 10.0 mi Calm Calm - N/A   Overcast
12:56 AM 28.9 °F - 27.0 °F 92% 30.03 in 10.0 mi Calm Calm - N/A   Overcast
1:30 AM 28.4 °F - 26.6 °F 93% 29.94 in 10.0 mi Calm Calm - N/A   Scattered Clouds
1:56 AM 28.0 °F - 26.1 °F 92% 30.02 in 10.0 mi Calm Calm - N/A   Clear
2:56 AM 28.0 °F - 26.1 °F 92% 30.00 in 10.0 mi Calm Calm - N/A   Overcast
3:56 AM 27.0 °F - 25.0 °F 92% 29.97 in 10.0 mi Calm Calm - N/A   Clear
4:56 AM 26.1 °F 21.9 °F 25.0 °F 96% 29.97 in 10.0 mi Variable 3.5 mph - N/A   Clear
5:06 AM 26.6 °F 22.6 °F 24.8 °F 93% 29.88 in 10.0 mi Variable 3.5 mph - N/A   Partly Cloudy
5:32 AM 26.6 °F 22.6 °F 24.8 °F 93% 29.87 in 1.8 mi Variable 3.5 mph - N/A   Mostly Cloudy
5:41 AM 26.6 °F 21.2 °F 24.8 °F 93% 29.86 in 1.2 mi ENE 4.6 mph - N/A   Overcast
5:51 AM 26.6 °F 21.2 °F 24.8 °F 93% 29.86 in 3.0 mi Variable 4.6 mph - N/A   Overcast
5:56 AM 26.6 °F 21.2 °F 24.8 °F 93% 29.86 in 6.0 mi Variable 4.6 mph - N/A   Overcast
6:56 AM 26.1 °F 21.9 °F 25.0 °F 96% 29.92 in 10.0 mi Variable 3.5 mph - N/A   Mostly Cloudy
7:03 AM 26.6 °F 19.1 °F 24.8 °F 93% 29.83 in 9.0 mi Variable 6.9 mph - N/A   Overcast
7:56 AM 27.0 °F 20.5 °F 26.1 °F 96% 29.91 in 10.0 mi Variable 5.8 mph - N/A   Overcast
8:44 AM 26.6 °F 16.8 °F 24.8 °F 93% 29.80 in 10.0 mi East 10.4 mph 21.9 mph N/A   Overcast
8:56 AM 26.1 °F 20.5 °F 25.0 °F 96% 29.89 in 9.0 mi Variable 4.6 mph - N/A   Overcast
9:35 AM 26.6 °F 19.1 °F 24.8 °F 93% 29.79 in 5.0 mi Variable 6.9 mph - 0.00 in Snow Light Snow
9:51 AM 26.6 °F 19.1 °F 24.8 °F 93% 29.78 in 2.5 mi Variable 6.9 mph - 0.00 in Snow Light Snow
9:54 AM 26.6 °F 20.0 °F 24.8 °F 93% 29.78 in 1.2 mi Variable 5.8 mph - 0.00 in Snow Light Snow
9:56 AM 26.1 °F 18.4 °F 25.0 °F 96% 29.87 in 0.8 mi Variable 6.9 mph - 0.00 in Snow Light Snow
10:04 AM 26.6 °F 17.5 °F 24.8 °F 93% 29.77 in 0.2 mi East 9.2 mph - 0.00 in Fog , Snow Snow
10:35 AM 26.6 °F 18.2 °F 26.6 °F 100% 29.76 in 0.2 mi East 8.1 mph - 0.04 in Fog , Snow Snow
10:56 AM 26.1 °F 18.4 °F 25.0 °F 96% 29.83 in 0.2 mi Variable 6.9 mph - 0.05 in Fog , Snow Light Snow
11:05 AM 26.6 °F 19.1 °F 24.8 °F 93% 29.74 in - Variable 6.9 mph 21.9 mph 0.00 in Snow Light Snow
11:32 AM 26.6 °F 20.0 °F 26.6 °F 100% 29.73 in 0.2 mi Variable 5.8 mph 23.0 mph 0.04 in Fog , Snow Snow
11:56 AM 27.0 °F 19.5 °F 26.1 °F 96% 29.82 in 0.2 mi Variable 6.9 mph 18.4 mph 0.07 in Fog , Snow Light Snow
12:56 PM 27.0 °F 18.7 °F 27.0 °F 100% 29.79 in 0.2 mi East 8.1 mph 19.6 mph 0.13 in Fog , Snow Snow
1:56 PM 28.0 °F 20.0 °F 27.0 °F 96% 29.78 in 0.2 mi East 8.1 mph - 0.06 in Fog , Snow Light Snow
2:56 PM 28.0 °F 20.8 °F 27.0 °F 96% 29.77 in 0.2 mi Variable 6.9 mph - 0.02 in Fog , Snow Light Snow
3:56 PM 28.0 °F 20.8 °F 27.0 °F 96% 29.77 in 0.2 mi Variable 6.9 mph - 0.02 in Fog , Snow Light Snow
4:56 PM 28.0 °F 20.8 °F 27.0 °F 96% 29.79 in 0.2 mi Variable 6.9 mph - 0.01 in Fog , Snow Light Snow
5:56 PM 28.0 °F 20.8 °F 27.0 °F 96% 29.80 in 0.2 mi Variable 6.9 mph - 0.00 in Fog Light Freezing Fog
6:56 PM 28.0 °F 22.8 °F 27.0 °F 96% 29.80 in 0.2 mi Variable 4.6 mph - N/A Fog Light Freezing Fog
7:56 PM 28.0 °F 21.7 °F 27.0 °F 96% 29.81 in 0.5 mi Variable 5.8 mph - N/A Fog Light Freezing Fog
8:56 PM 28.9 °F 23.9 °F 28.0 °F 96% 29.83 in 0.8 mi Variable 4.6 mph - N/A   Mist
9:47 PM 28.4 °F 23.3 °F 28.4 °F 100% 29.76 in 0.2 mi Variable 4.6 mph - N/A Fog Light Freezing Fog
9:54 PM 28.4 °F 23.3 °F 28.4 °F 100% 29.76 in 0.5 mi Variable 4.6 mph - N/A Fog Light Freezing Fog
9:56 PM 28.9 °F 23.9 °F 28.0 °F 96% 29.85 in 0.5 mi Variable 4.6 mph - N/A Fog Light Freezing Fog
10:05 PM 28.4 °F 24.6 °F 28.4 °F 100% 29.76 in 0.2 mi Variable 3.5 mph - N/A Fog Light Freezing Fog
10:09 PM 28.4 °F 23.3 °F 28.4 °F 100% 29.76 in 0.5 mi Variable 4.6 mph - N/A Fog Light Freezing Fog
10:32 PM 28.4 °F 24.6 °F 28.4 °F 100% 29.77 in 1.5 mi Variable 3.5 mph - N/A   Overcast
10:42 PM 28.4 °F 24.6 °F 28.4 °F 100% 29.77 in 1.0 mi Variable 3.5 mph - N/A   Overcast
10:54 PM 28.4 °F 24.6 °F 28.4 °F 100% 29.78 in 2.0 mi Variable 3.5 mph - N/A   Overcast
10:56 PM 28.9 °F 23.9 °F 28.0 °F 96% 29.86 in 2.0 mi Variable 4.6 mph - N/A   Overcast
11:01 PM 28.4 °F 23.3 °F 28.4 °F 100% 29.78 in 1.2 mi ENE 4.6 mph - N/A   Overcast
11:11 PM 28.4 °F 24.6 °F 28.4 °F 100% 29.78 in 0.5 mi Variable 3.5 mph - N/A Fog Light Freezing Fog
11:18 PM 28.4 °F 24.6 °F 28.4 °F 100% 29.78 in 0.8 mi Variable 3.5 mph - N/A   Overcast
11:24 PM 28.4 °F 23.3 °F 28.4 °F 100% 29.79 in 1.5 mi Variable 4.6 mph - N/A   Overcast
11:31 PM 28.4 °F 23.3 °F 28.4 °F 100% 29.79 in 1.0 mi Variable 4.6 mph - N/A   Overcast
11:39 PM 28.4 °F 23.3 °F 28.4 °F 100% 29.79 in 0.5 mi Variable 4.6 mph - N/A Fog Light Freezing Fog
11:48 PM 28.4 °F 23.3 °F 28.4 °F 100% 29.80 in 0.2 mi Variable 4.6 mph - N/A Fog Light Freezing Fog
11:56 PM 28.9 °F 23.9 °F 28.0 °F 96% 29.89 in 0.5 mi Variable 4.6 mph - N/A Fog Light Freezing Fog